Flag for Sweden Weather past 2 weeks in Helsingborg, Sweden

Now
57 °F

Passing clouds.


Feels Like: 54 °F
Forecast: 49 / 54 °F
Wind: 14 mph from Southwest

Location: Ljungbyhed

Current Time: May 29, 2015 at 6:24:30 PM

Latest Report: May 29, 2015 at 5:50 PM


Visibility: N/A

Pressure: 29.77 "Hg

Humidity: 55%

Dew point: 41 °F

Location of HelsingborgLocation

Historic Weather in Helsingborg — Graph

°F

Helsingborg temperature yesterday

Maximum temperature yesterday: 59 °F (at 1:50 PM)
Minimum temperature yesterday: 37 °F (at 3:20 AM)
Average temperature yesterday: 50 °F

Past Weeks' High & Low Weather Summary

 TemperatureHumidityPressure
High61 °F (May 20, 2:50 PM)100% (May 15, 4:20 AM)30.21 "Hg (May 15, 4:20 AM)
Low36 °F (May 21, 4:50 AM)39% (May 15, 1:50 PM)29.53 "Hg (May 19, 4:20 AM)
Average50 °F78%29.93 "Hg
* Reported May 14 5:20 PM — May 29 5:20 PM, Helsingborg, Weather by CustomWeather, © 2015

Note: Actual official high and low records may vary slightly from our data, if they occured in-between our weather recording intervals... More about our weather records

Advertising

Helsingborg weather history for previous 24 hours

 ConditionsComfort  
Time TempWeatherWind HumidityBarometerVisibility
5:20 PM
Fri, May 29
57 °FPassing clouds.15 mph59%29.77 "HgN/A
4:50 PM57 °FPassing clouds.14 mph59%29.77 "HgN/A
4:20 PM59 °FPassing clouds.15 mph55%29.77 "HgN/A
3:50 PM59 °FScattered clouds.15 mph55%29.77 "HgN/A
2:50 PM57 °FScattered clouds.14 mph55%29.77 "HgN/A
2:20 PM57 °FBroken clouds.14 mph59%29.80 "HgN/A
1:50 PM57 °FScattered clouds.15 mph55%29.80 "HgN/A
1:20 PM55 °FScattered clouds.13 mph59%29.80 "HgN/A
12:50 PM59 °FScattered clouds.9 mph59%29.80 "HgN/A
12:20 PM54 °FBroken clouds.16 mph63%29.80 "HgN/A
11:50 AM55 °FScattered clouds.12 mph59%29.80 "HgN/A
11:20 AM57 °FScattered clouds.13 mph55%29.80 "HgN/A
10:50 AM55 °FScattered clouds.13 mph55%29.80 "HgN/A
10:20 AM54 °FBroken clouds.13 mph63%29.83 "HgN/A
9:50 AM55 °FScattered clouds.13 mph63%29.83 "HgN/A
9:20 AM54 °FPassing clouds.14 mph63%29.83 "HgN/A
8:50 AM54 °FPassing clouds.12 mph63%29.80 "HgN/A
8:20 AM52 °FPassing clouds.8 mph72%29.80 "HgN/A
7:50 AM50 °FCool.12 mph76%29.80 "HgN/A
7:20 AM48 °FCool.10 mph87%29.80 "HgN/A
6:50 AM48 °FCool.10 mph82%29.80 "HgN/A
6:20 AM46 °FCool.10 mph87%29.80 "HgN/A
5:20 AM45 °FQuite cool.8 mph93%29.80 "HgN/A
4:50 AM45 °FQuite cool.8 mph87%29.80 "HgN/A
4:20 AM43 °FQuite cool.7 mph93%29.80 "HgN/A
3:50 AM43 °FQuite cool.7 mph93%29.80 "HgN/A
3:20 AM45 °FQuite cool.6 mph87%29.80 "HgN/A
2:50 AM45 °FQuite cool.7 mph93%29.80 "HgN/A
2:20 AM46 °FPassing clouds.8 mph87%29.77 "HgN/A
1:50 AM46 °FPassing clouds.8 mph87%29.77 "HgN/A
1:20 AM45 °FQuite cool.8 mph93%29.77 "HgN/A
11:50 PM
Thu, May 28
48 °FPassing clouds.9 mph82%29.77 "HgN/A
11:20 PM48 °FPassing clouds.7 mph82%29.74 "HgN/A
10:50 PM48 °FPassing clouds.5 mph82%29.74 "HgN/A
10:20 PM48 °FPartly sunny.5 mph76%29.74 "HgN/A
9:50 PM50 °FScattered clouds.9 mph71%29.74 "HgN/A
9:20 PM50 °FCool.6 mph71%29.74 "HgN/A
8:50 PM54 °FCool.8 mph63%29.74 "HgN/A
8:20 PM55 °FRefreshingly cool.15 mph55%29.71 "HgN/A
7:50 PM55 °FPassing clouds.21 mph59%29.71 "HgN/A
7:20 PM55 °FScattered clouds.12 mph72%29.71 "HgN/A
6:50 PM55 °FPassing clouds.9 mph77%29.71 "HgN/A
6:20 PM54 °FPassing clouds.14 mph82%29.71 "HgN/A
Weather by CustomWeather, © 2015

See weather overviewHow to use our weather pages